Presure
188 192 200 198 145 154 184 187 182 184 186 179 174 173 172 179 103 139 93 97 104 98 102 112 107 97 109
186 208 164 138 143 194 191 138 196 196 193 193 186 104 166 169 155 180 124 131 108 145 108 98 102 98 171
199 134 205 214 195 190 175 136 189 186 189 186 190 185 191 187 186 148 108 149 99 119 98 183 188 150 175
202 191 195 187 212 209 198 190 192 159 128 179 157 188 187 182 169 177 194 179 183 100 192 175 185 191 171
237 219 196 194 200 193 209 194 170 193 149 185 145 198 206 202 147 180 175 174 178 126 122 159 168 174 179
199 228 217 215 197 199 210 188 213 203 203 203 121 129 127 216 214 206 198 134 135 209 198 160 142 150 165
317 221 227 211 221 199 180 193 191 183 192 196 165 138 141 208 210 212 206 200 160 182 194 197 204 191 188
260 293 247 215 213 215 225 201 190 186 191 188 189 194 197 197 185 210 207 209 205 205 196 195 192 219 179
454 274 276 241 219 225 210 227 223 209 188 190 187 175 181 186 161 162 198 203 200 204 202 200 187 189 203
480 519 278 268 246 221 224 226 208 200 219 219 184 187 187 172 177 177 187 184 182 193 201 192 197 200 180
483 432 516 381 269 274 222 221 214 206 196 224 213 200 188 184 186 190 185 182 180 180 195 194 194 199 182
460 482 504 507 509 266 266 269 244 219 204 201 202 203 212 192 186 170 174 188 184 187 186 182 174 183 175
447 459 475 497 497 497 266 262 274 252 242 223 204 197 207 208 194 187 183 178 182 182 186 177 190 193 163
431 440 455 473 494 494 491 266 263 269 256 244 219 226 202 202 194 191 187 171 190 180 188 174 175 192 169
423 435 441 454 472 495 497 487 260 262 269 251 236 235 225 204 191 205 184 186 193 185 181 184 181 183 158
404 422 436 445 464 477 496 496 470 262 261 269 248 245 233 206 205 206 183 198 194 197 178 188 185 174 172
372 387 403 422 439 453 480 503 509 500 258 250 262 261 233 217 212 203 205 183 186 192 160 160 165 189 190
Wind_Speed
147 146 147 149 112 112 132 131 119 115 112 110 107 102 100 99 71 85 58 59 63 58 58 64 65 51 63
148 153 126 104 106 147 145 102 139 134 127 121 113 82 100 99 95 99 86 87 72 80 67 56 61 55 81
151 110 147 151 151 149 130 110 140 132 131 121 120 112 116 112 107 87 73 85 66 76 62 90 89 80 83
156 152 152 148 151 152 152 146 144 120 100 120 107 123 117 110 103 108 110 100 100 66 98 87 88 86 83
156 158 156 156 154 150 151 140 125 138 118 139 107 119 133 128 99 103 98 98 98 84 77 88 87 84 84
143 160 159 163 159 155 152 142 144 140 143 138 96 94 94 124 121 119 116 91 84 101 102 89 78 82 84
149 166 162 164 164 152 137 148 142 139 137 135 115 107 101 127 120 116 113 110 96 101 105 99 96 94 89
155 148 166 168 169 167 164 154 140 140 142 133 137 136 132 131 117 117 111 111 109 107 104 99 98 96 89
99 155 154 170 172 172 160 164 153 155 140 135 141 121 129 130 97 97 119 111 110 107 103 101 95 93 91
77 77 158 162 171 174 172 166 154 152 150 148 142 142 139 114 113 111 119 113 108 107 104 100 100 97 83
64 93 79 127 162 161 171 170 163 157 155 152 145 150 140 139 133 131 128 118 110 103 108 103 97 98 83
61 63 69 80 89 166 166 168 173 163 163 156 151 149 144 147 132 108 110 129 122 117 110 102 89 91 75
56 58 62 69 84 95 171 171 164 167 164 165 154 152 149 146 141 137 132 121 122 113 115 92 107 106 68
53 56 60 65 73 86 97 172 169 160 165 164 162 156 151 149 144 140 138 107 129 116 125 94 90 110 65
48 52 58 63 67 74 89 98 170 162 159 163 162 159 155 151 143 139 138 134 130 126 119 122 107 104 71
43 45 50 57 63 70 78 91 105 165 161 157 163 162 158 156 150 139 134 136 132 129 108 121 117 113 88
41 44 48 51 56 63 70 78 91 100 165 162 160 159 160 156 150 144 145 126 133 127 91 88 85 121 125
Wind_Direction
246 247 245 246 248 246 257 256 255 255 253 252 253 253 254 256 252 254 247 252 259 257 262 269 274 267 280
245 244 246 248 246 248 253 242 255 256 258 257 256 254 254 253 257 258 258 261 261 263 264 262 268 266 278
240 254 243 244 245 249 247 248 254 256 256 257 257 258 259 259 258 256 257 259 257 262 260 268 270 271 274
241 243 244 246 243 243 246 250 251 249 245 255 251 257 257 257 258 260 261 261 263 258 266 264 268 270 271
234 235 242 245 244 246 243 244 248 248 248 256 250 252 257 258 256 255 256 258 261 263 262 262 264 266 270
246 235 234 237 243 243 240 246 242 245 247 249 245 246 249 254 255 257 259 256 258 261 263 264 265 268 266
237 237 232 236 237 242 244 244 245 246 246 247 247 243 247 256 256 256 257 260 257 260 262 264 264 266 268
234 233 234 234 236 237 237 242 243 244 245 247 249 252 253 255 256 256 257 257 258 259 260 261 262 263 264
236 225 228 229 233 234 241 236 235 239 245 244 246 250 253 255 249 249 257 256 257 259 260 261 261 263 265
243 240 225 226 228 237 235 234 239 239 236 237 244 246 248 253 255 255 256 256 257 258 259 260 262 263 261
246 239 240 228 224 226 238 238 238 238 240 235 234 239 246 250 252 253 256 256 257 258 258 259 261 263 261
248 244 244 239 235 223 226 228 230 234 237 241 237 237 236 244 246 252 254 255 257 259 259 260 253 263 264
252 248 245 242 238 233 225 226 226 226 227 233 239 239 236 236 243 247 250 255 257 259 260 262 264 263 240
252 249 246 243 241 237 233 225 225 224 224 227 233 231 239 239 242 242 247 252 250 258 259 260 264 265 254
256 251 248 246 243 241 237 231 227 223 223 224 228 228 230 235 243 235 247 248 248 253 258 259 263 265 235
262 257 252 250 247 243 241 236 229 223 223 222 225 225 227 236 235 234 247 241 242 245 253 256 260 259 258
255 252 249 245 243 244 243 240 233 227 223 223 221 223 225 231 233 234 234 245 245 243 241 244 250 260 261